Regional Weather Roundup
Issued by NWS Cleveland, OH

Home | Current Version | Previous Version | Graphics & Text | Print | Product List | Glossary On
Versions: 1 2 3 4 5 6 7 8 9 10 11 12 13 14 15 16 17 18 19 20 21 22 23 24 25 26 27 28 29 30 31 32 33 34 35 36 37 38 39 40 41 42 43 44 45 46 47 48 49 50
322
ASUS41 KCLE 231010
RWRCLE
OHIO REGIONAL WEATHER ROUNDUP
NATIONAL WEATHER SERVICE CLEVELAND, OH
600 AM EDT SUN JUL 23 2017

NOTE: "FAIR" INDICATES FEW OR NO CLOUDS BELOW 12,000 FEET WITH NO
SIGNIFICANT WEATHER AND/OR OBSTRUCTIONS TO VISIBILITY.

OHZ001>008-015>018-024>027-034-035-043-044-231100-
   NORTHWEST OHIO

CITY           SKY/WX    TMP DP  RH WIND       PRES   REMARKS
DEFIANCE       CLOUDY   N/A N/A N/A CALM      29.80S
FINDLAY        CLOUDY    69  66  90 W5        29.80R
TOLEDO EXPRESS CLEAR     68  68 100 CALM      29.78F
TOLEDO EXEC    CLEAR     69  68  96 CALM      29.80R
LIMA           LGT RAIN  68  68 100 CALM      29.81R
$$

OHZ009>014-019>023-028>033-038-089-231100-
   NORTHEAST OHIO

CITY           SKY/WX    TMP DP  RH WIND       PRES   REMARKS
CLE-HOPKINS    CLOUDY    74  71  91 W5        29.79R
CLE-LAKEFRONT  CLOUDY    75  71  87 W7        29.75S
CUY CO. ARPT   NOT AVBL
LORAIN-ELYRIA  CLOUDY    70  66  87 W3        29.78S
ASHTABULA      MOCLDY    72  72 100 W6        29.77R
AKRON-CANTON   CLOUDY    72  68  87 SW5       29.80S
WOOSTER        MOCLDY    70  69  97 CALM      29.81R
MANSFIELD      PTCLDY    71  70  96 NW5       29.82R
YOUNGSTOWN     MOCLDY    71  70  96 SW8       29.79R
$$

OHZ042-051>053-060>062-070>072-077>081-231100-
  SOUTHWEST OHIO

CITY           SKY/WX    TMP DP  RH WIND       PRES   REMARKS
CINC-COVINGTON CLOUDY    73  73 100 SW8       29.84F
CINC-LUNKEN    LGT RAIN  72  32  23 S7        29.83F
HAMILTON       CLOUDY    73  73 100 CALM      29.82S
DAYTON         CLOUDY    74  72  93 SW9       29.83R
WRIGHT-PAT AFB MOCLDY    74  74 100 SW8       29.81R
DAYTON GENERAL LGT RAIN  72  70  93 SW8       29.82R
WILMINGTON     LGT RAIN  72  72 100 SW13      29.83R
$$

OHZ036-037-039>041-045>050-054>059-063>069-073>076-082>088-231100-
  CENTRAL AND SOUTHEAST OHIO

CITY           SKY/WX    TMP DP  RH WIND       PRES   REMARKS
COLUMBUS       CLOUDY    74  74 100 S3        29.80R
OSU AIRPORT    CLOUDY    73  72  96 SW3       29.80R
BOLTON FIELD   CLOUDY    73  73  99 W6        29.81R
RICKENBACK AFB CLOUDY    72  72 100 CALM      29.80R
NEWARK         PTCLDY    72  71  97 CALM      29.80R
MARION         CLOUDY    71  69  93 NW5       29.80S
LANCASTER      CLOUDY    70  70 100 CALM      29.81R
ZANESVILLE     CLOUDY    73  71  93 SW3       29.81R
NEW PHILLY     NOT AVBL
$$




USA.gov is the U.S. government's official web portal to all federal, state and local government web resources and services.